{"data":{"norad_id":63267,"intl_designator":"2025-053C","name":"STARLINK-11653 [DTC]","alt_names":[],"object_type":"PAYLOAD","status":"ACTIVE","operator":null,"country":"US","launch_date":"2025-03-15","launch_site_code":"AFETR","launch_vehicle":null,"mission":null,"orbit_class":"UNKNOWN","rcs_meters":null,"size_class":null,"mass_kg":null,"dimensions":null,"purposes":["comms"],"wikipedia_slug":null,"has_3d_model":false,"image_url":null,"decayed_at":null,"tle_current":{"epoch":"2026-09-21T13:42:10.362528Z","epoch_age_seconds":69744,"freshness":"FRESH","line1":"1 63267U 25053C   26264.57095327  .00128756  00000+0  99038-3 0  9997","line2":"2 63267  43.0040  11.7780 0002569 271.4350  88.6223 15.70863833 88475","mean_motion":15.70863833,"eccentricity":0.0002569,"inclination_deg":43.004,"raan_deg":11.778,"arg_perigee_deg":271.435,"mean_anomaly_deg":88.6223,"bstar":0.00099038,"rev_number":8847,"period_min":91.669307660481,"perigee_km":354.69683377837,"apogee_km":358.15705273241,"semimajor_km":6734.5639432554,"source":"CELESTRAK","updated_at":"2026-09-22T09:00:49.799422Z"}}}